Regional Weather Roundup
Issued by NWS Mt. Holly, NJ

Home | Current Version | Previous Version | Text Only | Print | Product List | Glossary On
Versions: 1 2 3 4 5 6 7 8 9 10 11 12 13 14 15 16 17 18 19 20 21 22 23 24 25 26 27 28 29 30 31 32 33 34 35 36 37 38 39 40 41 42 43 44 45 46 47 48 49 50
000
ASUS41 KPHI 010611
RWRPHI

REGIONAL WEATHER ROUNDUP
NATIONAL WEATHER SERVICE MOUNT HOLLY NJ
100 AM EST SUN MAR 01 2015

NOTE:  "FAIR" INDICATES FEW OR NO CLOUDS BELOW 12,000 FEET WITH NO
SIGNIFICANT WEATHER AND/OR OBSTRUCTIONS TO VISIBILITY.

 * = STATION DOES NOT REPORT PRECIPITATION (E.G. RAIN, SNOW, ETC.)
        OR FOG.

NJZ015>026-010700-
SOUTHERN NEW JERSEY

CITY           SKY/WX    TMP DP  RH WIND       PRES   REMARKS
POMONA         CLEAR     13   6  74 CALM      30.73F
6HR MIN TEMP:  13; 6HR MAX TEMP:  24;

RIO GRANDE*    CLEAR     16   7  67 CALM      30.74F
MILLVILLE      CLEAR     13   7  77 CALM      30.72F
WRIGHTSTOWN    CLEAR     12   6  78 E1        30.69F
MOUNT HOLLY    CLEAR     16   8  71 CALM      30.72F
TRENTON        CLEAR     15   3  59 CALM      30.70F
6HR MIN TEMP:  15; 6HR MAX TEMP:  25;


$$
NJZ001>014-010700-
NORTHERN NEW JERSEY

CITY           SKY/WX    TMP DP  RH WIND       PRES   REMARKS
SUSSEX         MIX PCPN   4  -2  76 SW3       30.68F
ANDOVER*         N/A      2  -3  80 CALM      30.67F
MORRISTOWN     CLEAR     10   5  79 CALM      30.71F
NEWARK         PTCLDY    22   2  42 CALM      30.72F
TETERBORO      CLEAR     16   3  56 CALM      30.72F
CALDWELL       CLEAR     13   1  59 CALM      30.72F
SOMERVILLE     CLEAR      8   2  76 CALM      30.70F
ALLAIRE*       CLEAR     19   3  49 SW3       30.71S
TOMS RIVER*    CLEAR      9   7  92 CALM      30.73S

$$
PAZ043-044-047-054-055-060>062-066>071-010700-
EASTERN PENNSYLVANIA

CITY           SKY/WX    TMP DP  RH WIND       PRES   REMARKS
PHILADELPHIA   FAIR      23   7  50 CALM      30.73F
6HR MIN TEMP:  21; 6HR MAX TEMP:  29;

NORTH PHILA    CLEAR     20   6  55 CALM      30.73F
BLUE BELL      CLEAR     18  10  73 CALM      30.69F
DOYLESTOWN     CLEAR     13   2  61 CALM      30.68F
QUAKERTOWN*    PTCLDY     7   0  72 MISG      30.68F
POTTSTOWN      CLEAR     13   4  67 CALM      30.71F
LANCASTER      CLEAR     15   6  67 CALM      30.70R
COATESVILLE    CLEAR     18   5  57 CALM      30.68S
READING        PTCLDY    13   3  64 NW3       30.70S
6HR MIN TEMP:  12; 6HR MAX TEMP:  24;

ALLENTOWN      CLEAR      8   0  69 CALM      30.69F
6HR MIN TEMP:   8; 6HR MAX TEMP:  22;

MOUNT POCONO   FAIR       0  -7  72 CALM      30.54F
6HR MIN TEMP:  -1; 6HR MAX TEMP:  15;

HAZLETON       PTCLDY     7   0  72 MISG      30.62R
WILKES BARRE   PTCLDY    10  -3  55 E7        30.63F WCI  -1

$$
DEZALL-MDZ008-012-015-019-020-010700-
DELAWARE AND EASTERN MARYLAND

CITY           SKY/WX    TMP DP  RH WIND       PRES   REMARKS
WILMINGTON     CLEAR     20   6  55 CALM      30.73F
6HR MIN TEMP:  19; 6HR MAX TEMP:  25;

DOVER          CLEAR     18  12  75 S2        30.73F
GEORGETOWN     CLEAR     14   9  80 CALM      30.74F
6HR MIN TEMP:  14; 6HR MAX TEMP:  23;

EASTON         CLEAR     21  15  77 CALM      30.76F
PATUXENT       MOCLDY    20  13  74 S5        30.73F WCI  13
OCEAN CITY     CLEAR     14  10  84 CALM      30.74F
WALLOPS ISLAND CLEAR     16  13  88 CALM      30.74F
CAMBRIDGE      CLEAR     21  14  73 CALM      30.72F
SALISBURY      CLEAR     17  10  74 CALM      30.73F

$$
PAZ001-021-NYZ056-072-MDZ011-DCZ001-010700-
OTHER NEARBY LOCATIONS

CITY           SKY/WX    TMP DP  RH WIND       PRES   REMARKS
HARRISBURG     CLEAR     17   6  62 E6        30.70R WCI   9
STATE COLLEGE  PTCLDY    15  -1  48 CALM      30.58F
WILLIAMSPORT   PTCLDY    11   0  61 CALM      30.68R
BINGHAMTON     PTCLDY    11  -4  51 S5        30.56S WCI   3
NEW YORK CITY  CLEAR     26  -1  31 W5        30.73F WCI  20
BALTIMORE      PTCLDY    16   8  71 CALM      30.71F
WASHINGTON DC  MOCLDY    26  11  52 CALM      30.73F

$$


USA.gov is the U.S. government's official web portal to all federal, state and local government web resources and services.